Location: Zagreb
(45.8000°N, 16.0000°E)
Time: 00:55:04
(UTC+01:00)

Transit 2A Rocket - Pass Details

Date: 11 October 2020
Orbit: 586 x 916 km, 66.7° (Epoch: 28 October)

Event Time Altitude Azimuth Distance (km) Brightness Sun altitude
Rises 16:19:05 0° 250° (WSW) 3,545 10.0 18.3°
Reaches altitude 10° 16:22:01 10° 262° (W) 2,607 9.2 17.8°
Maximum altitude 16:27:09 27° 320° (NW) 1,654 7.0 17.1°
Drops below altitude 10° 16:32:11 10° 17° (NNE) 2,541 7.3 16.3°
Sets 16:35:01 0° 30° (NNE) 3,440 7.9 15.9°
